Weather History for Dallas/Ft Worth, TX

Change the Weather History Date:

Tuesday, October 16, 2012

  Actual Average Record
Temperature  
Mean Temperature 68 °F 68 °F  
Max Temperature 77 °F 78 °F 93 °F (1972)
Min Temperature 59 °F 57 °F 39 °F (1966)
Degree Days  
Heating Degree Days 0 2  
Month to date heating degree days 39 19  
Since 1 July heating degree days 39 25  
Cooling Degree Days 3 4  
Month to date cooling degree days 89 97  
Year to date cooling degree days 3206 2674  
Growing Degree Days 18 (Base 50)    
Moisture  
Dew Point 54 °F    
Average Humidity 67    
Maximum Humidity 87    
Minimum Humidity 46    
Precipitation  
Precipitation 0.00 in 0.15 in 2.92 in (1942)
Month to date precipitation 1.02 1.94  
Year to date precipitation 29.26 28.60  
Snow  
Snow 0.00 in 0.00 in 0.00 in ()
Month to date snowfall 0.0 0.0  
Since 1 July snowfall 0.0 0.0  
Since 1 September snowfall 0.0 0.0  
Snow Depth 0.00 in    
Sea Level Pressure  
Sea Level Pressure 29.79 in    
Wind  
Wind Speed 13 mph (South)    
Max Wind Speed 26 mph    
Max Gust Speed 31 mph    
Visibility 10 miles    
Events      
T = Trace of Precipitation, MM = Missing Value Source: NWS Daily Summary

Daily Weather History Graph

Daily Weather History Graph

Search for Another Location

Airport:

Trip Planner

Search our weather history database for the weather conditions in past years. The results will help you decide how hot, cold, wet, or windy it might be!

Date:

Astronomy

Oct. 16, 2012 Rise Set
Actual Time 7:33 AM CDT 6:53 PM CDT
Civil Twilight 7:08 AM CDT 7:18 PM CDT
Nautical Twilight 6:39 AM CDT 7:46 PM CDT
Astronomical Twilight 6:11 AM CDT 8:15 PM CDT
Moon 8:50 AM CDT (10/16) 7:46 PM CDT (10/16)
Length of Visible Light 12h 09m
Length of Day
11h 19m
New Moon, 2% of the Moon is Illuminated
Oct 16
New Moon
Oct 21
First Quarter
Oct 29
Full
Nov 6
Last Quarter
Nov 13
New

Hourly Weather History & Observations

Time (CDT) Temp. Dew Point Humidity Pressure Visibility Wind Dir Wind Speed Gust Speed Precip Events Conditions
12:53 AM 63.0 °F 50.0 °F 63% 29.94 in 10.0 mi South 8.1 mph - N/A   Mostly Cloudy
1:53 AM 64.9 °F 48.9 °F 56% 29.92 in 10.0 mi South 9.2 mph - N/A   Mostly Cloudy
2:53 AM 61.0 °F 50.0 °F 67% 29.92 in 10.0 mi SSW 5.8 mph - N/A   Mostly Cloudy
3:53 AM 62.1 °F 50.0 °F 65% 29.89 in 10.0 mi Calm Calm - N/A   Mostly Cloudy
4:53 AM 62.6 °F 50.0 °F 63% 29.90 in 10.0 mi South 6.9 mph - N/A   Mostly Cloudy
5:53 AM 61.0 °F 51.1 °F 70% 29.87 in 10.0 mi SSE 4.6 mph - N/A   Overcast
6:53 AM 62.6 °F 51.8 °F 68% 29.88 in 10.0 mi South 5.8 mph - N/A   Overcast
7:53 AM 61.0 °F 52.0 °F 72% 29.87 in 10.0 mi SE 3.5 mph - N/A   Mostly Cloudy
8:53 AM 63.0 °F 53.1 °F 70% 29.88 in 10.0 mi SSE 5.8 mph - N/A   Overcast
9:53 AM 66.9 °F 51.1 °F 57% 29.86 in 10.0 mi South 9.2 mph - N/A   Overcast
10:53 AM 69.1 °F 52.0 °F 54% 29.86 in 10.0 mi South 12.7 mph - N/A   Overcast
11:53 AM 70.0 °F 52.0 °F 53% 29.85 in 10.0 mi South 16.1 mph - N/A   Overcast
12:53 PM 72.0 °F 52.0 °F 49% 29.82 in 10.0 mi South 15.0 mph - N/A   Overcast
1:53 PM 73.0 °F 52.0 °F 48% 29.78 in 10.0 mi South 18.4 mph - N/A   Mostly Cloudy
2:53 PM 75.0 °F 55.0 °F 50% 29.74 in 10.0 mi South 19.6 mph 25.3 mph N/A   Mostly Cloudy
3:53 PM 75.9 °F 55.9 °F 50% 29.72 in 10.0 mi South 17.3 mph 26.5 mph N/A   Scattered Clouds
4:53 PM 75.9 °F 57.0 °F 52% 29.69 in 10.0 mi South 17.3 mph 26.5 mph N/A   Scattered Clouds
5:53 PM 73.9 °F 57.0 °F 55% 29.68 in 10.0 mi South 18.4 mph 24.2 mph N/A   Partly Cloudy
6:53 PM 71.1 °F 57.9 °F 63% 29.67 in 10.0 mi South 16.1 mph - N/A   Partly Cloudy
7:53 PM 69.1 °F 59.0 °F 70% 29.67 in 10.0 mi South 17.3 mph - N/A   Partly Cloudy
8:53 PM 66.9 °F 60.1 °F 79% 29.68 in 10.0 mi South 12.7 mph - N/A   Partly Cloudy
9:43 PM 66.2 °F 60.8 °F 83% 29.68 in 10.0 mi South 15.0 mph 21.9 mph N/A   Mostly Cloudy
9:53 PM 66.0 °F 62.1 °F 87% 29.67 in 10.0 mi South 15.0 mph - N/A   Mostly Cloudy
10:53 PM 68.0 °F 63.0 °F 84% 29.66 in 10.0 mi South 18.4 mph 28.8 mph N/A   Overcast
11:53 PM 69.1 °F 64.0 °F 84% 29.67 in 10.0 mi South 17.3 mph - N/A   Overcast